�������l�o���
Date,Time,MP-1(��Sv/h),MP-2(��Sv/h),MP-3(��Sv/h),MP-4(��Sv/h),MP-5(��Sv/h),MP-6(��Sv/h),MP-7(��Sv/h),����,����(m/s),���J
2019/06/12,00:00,0.188,0.171,0.283,0.266,0.266,0.142,0.087,�k�k��,6.6,��
2019/06/12,00:10,0.188,0.171,0.285,0.267,0.267,0.143,0.088,�k�k��,7.1,�L
2019/06/12,00:20,0.188,0.172,0.284,0.267,0.266,0.142,0.088,�k�k��,7.6,��
2019/06/12,00:30,0.187,0.171,0.284,0.268,0.266,0.143,0.087,�k�k��,6.7,��
2019/06/12,00:40,0.188,0.171,0.284,0.266,0.267,0.142,0.087,�k��,6.3,��
2019/06/12,00:50,0.188,0.172,0.284,0.268,0.265,0.142,0.088,�k�k��,7.1,��
2019/06/12,01:00,0.189,0.172,0.284,0.267,0.269,0.142,0.088,�k�k��,6.3,�L
2019/06/12,01:10,0.188,0.171,0.284,0.268,0.266,0.143,0.088,�k�k��,7.0,��
2019/06/12,01:20,0.188,0.171,0.286,0.268,0.268,0.142,0.088,�k��,6.7,��
2019/06/12,01:30,0.187,0.172,0.284,0.267,0.265,0.143,0.088,�k��,7.0,�L
2019/06/12,01:40,0.189,0.172,0.285,0.268,0.268,0.142,0.088,�k��,7.6,�L
2019/06/12,01:50,0.187,0.172,0.285,0.266,0.267,0.142,0.088,�k�k��,7.4,�L
2019/06/12,02:00,0.189,0.173,0.285,0.269,0.267,0.143,0.089,�k�k��,7.6,�L
2019/06/12,02:10,0.188,0.171,0.286,0.266,0.267,0.142,0.088,�k�k��,7.4,��
2019/06/12,02:20,0.188,0.172,0.283,0.266,0.266,0.143,0.088,�k�k��,7.8,��
2019/06/12,02:30,0.189,0.171,0.286,0.267,0.267,0.142,0.089,�k�k��,7.9,��
2019/06/12,02:40,0.188,0.171,0.285,0.266,0.264,0.142,0.088,�k�k��,9.3,��
2019/06/12,02:50,0.189,0.172,0.284,0.267,0.266,0.143,0.088,�k�k��,9.0,��
2019/06/12,03:00,0.188,0.170,0.285,0.266,0.267,0.142,0.088,�k�k��,9.2,��
2019/06/12,03:10,0.188,0.172,0.284,0.267,0.267,0.142,0.088,�k�k��,7.0,��
2019/06/12,03:20,0.189,0.171,0.286,0.266,0.266,0.142,0.088,�k�k��,7.1,��
2019/06/12,03:30,0.188,0.170,0.284,0.268,0.265,0.143,0.088,�k�k��,7.6,��
2019/06/12,03:40,0.189,0.171,0.285,0.266,0.266,0.142,0.087,�k�k��,6.7,��
2019/06/12,03:50,0.187,0.171,0.284,0.267,0.264,0.142,0.088,�k�k��,7.5,��
2019/06/12,04:00,0.187,0.171,0.284,0.267,0.267,0.143,0.088,�k��,7.4,��
2019/06/12,04:10,0.188,0.171,0.286,0.267,0.265,0.142,0.088,�k�k��,7.3,��
2019/06/12,04:20,0.188,0.168,0.283,0.268,0.267,0.142,0.088,�k�k��,8.2,��
2019/06/12,04:30,0.188,0.172,0.285,0.264,0.266,0.142,0.087,�k�k��,8.8,��
2019/06/12,04:40,0.188,0.170,0.285,0.266,0.266,0.143,0.087,�k�k��,9.0,��
2019/06/12,04:50,0.188,0.171,0.284,0.265,0.266,0.142,0.088,�k�k��,8.5,��
2019/06/12,05:00,0.188,0.171,0.285,0.266,0.265,0.142,0.088,�k�k��,8.8,��
2019/06/12,05:10,0.187,0.170,0.283,0.268,0.267,0.142,0.088,�k�k��,7.5,��
2019/06/12,05:20,0.188,0.171,0.285,0.266,0.266,0.143,0.088,�k��,7.6,��
2019/06/12,05:30,0.187,0.170,0.284,0.267,0.266,0.142,0.088,�k�k��,8.4,��
2019/06/12,05:40,0.189,0.171,0.285,0.267,0.266,0.142,0.088,�k�k��,8.6,��
2019/06/12,05:50,0.188,0.170,0.285,0.268,0.265,0.143,0.088,�k�k��,8.1,��
2019/06/12,06:00,0.189,0.170,0.285,0.267,0.266,0.142,0.088,�k�k��,7.6,��
2019/06/12,06:10,0.188,0.170,0.285,0.267,0.266,0.142,0.088,�k��,7.0,��
2019/06/12,06:20,0.188,0.169,0.285,0.266,0.266,0.142,0.088,�k��,6.8,��
2019/06/12,06:30,0.189,0.171,0.285,0.266,0.265,0.143,0.087,�k��,7.0,��
2019/06/12,06:40,0.187,0.169,0.284,0.267,0.266,0.142,0.088,�k�k��,7.0,��
2019/06/12,06:50,0.188,0.171,0.284,0.265,0.265,0.143,0.088,�k�k��,6.6,��
2019/06/12,07:00,0.188,0.171,0.284,0.267,0.264,0.141,0.088,�k�k��,5.2,��
2019/06/12,07:10,0.188,0.171,0.284,0.267,0.266,0.142,0.088,�k�k��,5.1,��
2019/06/12,07:20,0.188,0.170,0.286,0.266,0.265,0.142,0.087,�k�k��,5.2,��
2019/06/12,07:30,0.190,0.171,0.285,0.264,0.267,0.143,0.088,�k�k��,5.4,��
2019/06/12,07:40,0.187,0.171,0.285,0.268,0.264,0.142,0.087,�k�k��,5.7,��
2019/06/12,07:50,0.188,0.171,0.284,0.265,0.266,0.142,0.088,�k�k��,4.9,��
2019/06/12,08:00,0.187,0.170,0.285,0.268,0.264,0.142,0.087,�k�k��,5.4,��
2019/06/12,08:10,0.188,0.171,0.284,0.267,0.267,0.141,0.088,�k�k��,6.3,��
2019/06/12,08:20,0.186,0.170,0.285,0.267,0.265,0.142,0.087,�k,6.8,��
2019/06/12,08:30,0.189,0.170,0.283,0.267,0.267,0.143,0.088,�k,6.3,��
2019/06/12,08:40,0.187,0.171,0.285,0.267,0.265,0.143,0.088,�k�k��,5.9,��
2019/06/12,08:50,0.189,0.172,0.283,0.266,0.267,0.142,0.088,�k�k��,5.9,��
2019/06/12,09:00,0.187,0.170,0.285,0.265,0.265,0.143,0.088,�k��,5.4,��
2019/06/12,09:10,0.189,0.171,0.284,0.268,0.264,0.143,0.087,�k�k��,5.2,��
2019/06/12,09:20,0.188,0.170,0.285,0.266,0.266,0.142,0.088,�k�k��,6.2,��
2019/06/12,09:30,0.189,0.169,0.285,0.267,0.264,0.143,0.088,�k�k��,5.5,��
2019/06/12,09:40,0.188,0.171,0.283,0.266,0.265,0.143,0.088,�k�k��,7.0,��
2019/06/12,09:50,0.187,0.171,0.286,0.265,0.267,0.142,0.088,�k,5.4,��
2019/06/12,10:00,0.188,0.171,0.283,0.268,0.265,0.143,0.087,�k�k��,6.4,��
2019/06/12,10:10,0.187,0.170,0.286,0.264,0.268,0.142,0.088,�k,4.9,��
2019/06/12,10:20,0.190,0.172,0.283,0.269,0.266,0.141,0.089,�k,7.6,��
2019/06/12,10:30,0.187,0.169,0.286,0.267,0.264,0.143,0.088,�k,8.4,��
2019/06/12,10:40,0.189,0.170,0.285,0.265,0.268,0.142,0.087,�k,9.3,��
2019/06/12,10:50,0.187,0.171,0.283,0.267,0.266,0.142,0.089,�k�k��,8.6,��
2019/06/12,11:00,0.187,0.171,0.285,0.268,0.263,0.142,0.088,�k�k��,6.7,��
2019/06/12,11:10,0.187,0.171,0.284,0.265,0.266,0.143,0.088,�k�k��,7.0,��
2019/06/12,11:20,0.186,0.171,0.282,0.266,0.267,0.143,0.087,�k�k��,7.8,��
2019/06/12,11:30,0.188,0.170,0.285,0.268,0.265,0.142,0.089,�k�k��,7.0,��
2019/06/12,11:40,0.187,0.171,0.286,0.268,0.263,0.142,0.088,�k�k��,6.3,��
2019/06/12,11:50,0.186,0.171,0.283,0.265,0.268,0.143,0.088,�k�k��,5.2,��
2019/06/12,12:00,0.189,0.170,0.281,0.265,0.268,0.142,0.088,�k�k��,5.6,��
2019/06/12,12:10,0.188,0.171,0.284,0.266,0.264,0.142,0.088,�k�k��,5.7,��
2019/06/12,12:20,0.188,0.171,0.287,0.268,0.264,0.143,0.088,�k��,5.9,��
2019/06/12,12:30,0.190,0.170,0.285,0.268,0.267,0.143,0.087,�k�k��,8.7,��
2019/06/12,12:40,0.187,0.172,0.284,0.268,0.268,0.143,0.088,�k,7.6,��
2019/06/12,12:50,0.188,0.172,0.283,0.267,0.266,0.142,0.088,�k�k��,8.4,��
2019/06/12,13:00,0.190,0.170,0.287,0.266,0.266,0.142,0.088,�k��,5.2,��
2019/06/12,13:10,0.186,0.171,0.287,0.268,0.270,0.142,0.088,�k��,4.5,��
2019/06/12,13:20,0.190,0.172,0.285,0.271,0.268,0.143,0.088,�k��,5.2,��
2019/06/12,13:30,0.190,0.171,0.283,0.269,0.265,0.144,0.088,�k��,4.5,��
2019/06/12,13:40,0.188,0.172,0.284,0.267,0.264,0.143,0.088,�k��,4.5,��
2019/06/12,13:50,0.188,0.172,0.286,0.267,0.266,0.143,0.088,�k��,4.0,��
2019/06/12,14:00,0.189,0.171,0.287,0.266,0.269,0.143,0.089,�k��,4.3,��
2019/06/12,14:10,0.188,0.171,0.286,0.268,0.267,0.144,0.089,�k��,4.8,��
2019/06/12,14:20,0.188,0.172,0.285,0.269,0.265,0.143,0.089,�k��,5.3,��
2019/06/12,14:30,0.189,0.171,0.282,0.269,0.264,0.143,0.088,�k��,5.1,��
2019/06/12,14:40,0.187,0.172,0.285,0.267,0.267,0.144,0.088,�k��,5.1,��
2019/06/12,14:50,0.189,0.172,0.288,0.268,0.269,0.144,0.089,�k�k��,3.8,��
2019/06/12,15:00,0.190,0.170,0.286,0.270,0.266,0.142,0.088,�k�k��,4.9,��
2019/06/12,15:10,0.188,0.172,0.285,0.269,0.264,0.143,0.088,�k�k��,4.1,��
2019/06/12,15:20,0.188,0.172,0.284,0.271,0.266,0.143,0.088,�k�k��,3.4,��
2019/06/12,15:30,0.189,0.171,0.287,0.269,0.270,0.144,0.088,�k�k��,3.8,��
2019/06/12,15:40,0.187,0.173,0.286,0.272,0.268,0.143,0.087,�k��,3.3,��
2019/06/12,15:50,0.189,0.171,0.285,0.270,0.265,0.142,0.089,�k�k��,3.9,��
2019/06/12,16:00,0.189,0.172,0.288,0.270,0.265,0.143,0.088,�k��,4.2,��
2019/06/12,16:10,0.188,0.172,0.288,0.271,0.270,0.143,0.088,�k��,2.7,��
2019/06/12,16:20,0.190,0.172,0.287,0.269,0.268,0.142,0.088,�k�k��,3.5,��
2019/06/12,16:30,0.188,0.172,0.288,0.270,0.265,0.142,0.089,�k��,1.9,��
2019/06/12,16:40,0.189,0.173,0.288,0.270,0.265,0.143,0.088,�k�k��,2.5,��
2019/06/12,16:50,0.189,0.172,0.288,0.270,0.269,0.143,0.089,�k��,2.4,��
2019/06/12,17:00,0.188,0.173,0.289,0.269,0.268,0.142,0.088,�k��,2.5,��
2019/06/12,17:10,0.189,0.171,0.288,0.270,0.266,0.144,0.089,�k,3.8,��
2019/06/12,17:20,0.188,0.173,0.287,0.269,0.267,0.143,0.088,�k,3.9,��
2019/06/12,17:30,0.190,0.172,0.289,0.270,0.268,0.144,0.089,�k,4.8,��
2019/06/12,17:40,0.189,0.172,0.286,0.270,0.266,0.144,0.088,�k,4.2,��
2019/06/12,17:50,0.190,0.172,0.288,0.271,0.269,0.143,0.089,�k�k��,3.2,��
2019/06/12,18:00,0.189,0.172,0.287,0.270,0.268,0.143,0.088,�k�k��,2.6,��
2019/06/12,18:10,0.189,0.172,0.288,0.271,0.269,0.143,0.089,�k,3.1,��
2019/06/12,18:20,0.190,0.174,0.287,0.270,0.271,0.144,0.087,�k,3.1,��
2019/06/12,18:30,0.190,0.172,0.290,0.270,0.268,0.143,0.089,�k�k��,2.7,��
2019/06/12,18:40,0.189,0.172,0.287,0.269,0.270,0.143,0.089,�k��,2.6,��
2019/06/12,18:50,0.189,0.173,0.287,0.270,0.268,0.144,0.088,�k��,2.5,��
2019/06/12,19:00,0.191,0.172,0.288,0.271,0.270,0.143,0.088,�k��,3.3,��
2019/06/12,19:10,0.189,0.174,0.286,0.269,0.267,0.144,0.089,�k��,2.1,��
2019/06/12,19:20,0.190,0.172,0.289,0.272,0.269,0.144,0.088,�k�k��,3.0,��
2019/06/12,19:30,0.188,0.172,0.287,0.270,0.268,0.144,0.088,�k�k��,3.2,��
2019/06/12,19:40,0.189,0.172,0.289,0.271,0.270,0.144,0.088,�k�k��,3.6,��
2019/06/12,19:50,0.189,0.172,0.286,0.269,0.268,0.143,0.089,�k�k��,3.9,��
2019/06/12,20:00,0.190,0.173,0.288,0.271,0.269,0.144,0.089,�k�k��,2.8,��
2019/06/12,20:10,0.191,0.173,0.288,0.271,0.270,0.144,0.089,�k�k��,4.6,��
2019/06/12,20:20,0.189,0.173,0.288,0.271,0.268,0.145,0.088,�k�k��,4.8,��
2019/06/12,20:30,0.190,0.173,0.288,0.271,0.269,0.143,0.088,�k�k��,4.9,��
2019/06/12,20:40,0.190,0.172,0.287,0.269,0.267,0.144,0.088,�k�k��,5.4,��
2019/06/12,20:50,0.190,0.173,0.288,0.270,0.271,0.144,0.088,�k�k��,4.6,��
2019/06/12,21:00,0.189,0.172,0.288,0.269,0.268,0.143,0.089,�k�k��,4.8,��
2019/06/12,21:10,0.190,0.172,0.289,0.272,0.268,0.144,0.088,�k�k��,4.4,��
2019/06/12,21:20,0.190,0.173,0.289,0.271,0.268,0.143,0.090,�k�k��,4.2,��
2019/06/12,21:30,0.189,0.173,0.287,0.269,0.268,0.144,0.089,�k�k��,4.1,��
2019/06/12,21:40,0.188,0.173,0.290,0.271,0.270,0.144,0.089,�k�k��,4.9,��
2019/06/12,21:50,0.189,0.172,0.288,0.271,0.268,0.144,0.088,�k�k��,4.9,��
2019/06/12,22:00,0.191,0.173,0.289,0.271,0.269,0.144,0.089,�k�k��,4.5,��
2019/06/12,22:10,0.189,0.173,0.289,0.270,0.267,0.143,0.089,�k�k��,4.8,��
2019/06/12,22:20,0.191,0.172,0.287,0.269,0.270,0.143,0.088,�k�k��,4.6,��
2019/06/12,22:30,0.189,0.173,0.289,0.270,0.268,0.143,0.089,�k�k��,4.2,��
2019/06/12,22:40,0.190,0.172,0.287,0.270,0.269,0.143,0.089,�k�k��,4.5,��
2019/06/12,22:50,0.190,0.172,0.288,0.272,0.267,0.143,0.089,�k�k��,4.3,��
2019/06/12,23:00,0.190,0.172,0.288,0.270,0.268,0.144,0.089,�k�k��,3.6,��
2019/06/12,23:10,0.189,0.172,0.289,0.271,0.269,0.145,0.089,�k�k��,3.4,��
2019/06/12,23:20,0.189,0.171,0.288,0.270,0.267,0.144,0.089,�k��,3.7,��
2019/06/12,23:30,0.191,0.172,0.287,0.270,0.269,0.144,0.089,�k��,3.6,��
2019/06/12,23:40,0.190,0.172,0.287,0.270,0.268,0.144,0.089,�k��,3.7,��
2019/06/12,23:50,0.191,0.172,0.288,0.270,0.270,0.144,0.089,�k�k��,2.9,��
